Home > Weather > Udon Thani > Past weeks

Flag for Thailand Past Weather in Udon Thani, Thailand — Yesterday and Last 2 Weeks

Now
79 °F

Passing clouds.


Feels Like: 83 °F
Forecast: 77 / 88 °F
Wind: 2 mph from Southeast

Location: Udon Thani Airport

Current Time: Aug 28, 2016 at 9:17:16 PM

Latest Report: Aug 28, 2016 at 8:00 PM


Visibility: N/A

Pressure: 29.74 "Hg

Humidity: 94%

Dew Point: 77 °F

Location of Udon ThaniLocation

Past Weather in Udon Thani — Graph

°F

Udon Thani Temperature Yesterday

Maximum temperature yesterday: 91 °F (at 3:00 PM)
Minimum temperature yesterday: 73 °F (at 8:00 PM)
Average temperature yesterday: 81 °F

High & Low Weather Summary for the Past Weeks

 TemperatureHumidityPressure
High95 °F (Aug 21, 3:00 PM)100% (Aug 15, 4:00 AM)29.83 "Hg (Aug 15, 4:00 AM)
Low73 °F (Aug 22, 9:00 PM)50% (Aug 21, 3:00 PM)29.45 "Hg (Aug 19, 4:00 AM)
Average82 °F83%29.64 "Hg
* Reported Aug 13 8:00 PM — Aug 28 8:00 PM, Udon Thani, Weather by CustomWeather, © 2016

Note: Actual official high and low records may vary slightly from our data, if they occured in-between our weather recording intervals... More about our weather records

Advertising

Udon Thani Weather History for the Previous 24 Hours

Scroll right to see more
 ConditionsComfort  
Time TempWeatherWind HumidityBarometerVisibility
8:00 PM
Sun, Aug 28
79 °FPassing clouds.2 mph94%29.74 "HgN/A
7:00 PM79 °FPassing clouds.3 mph94%29.71 "HgN/A
6:00 PM79 °FBroken clouds.3 mph94%29.71 "HgN/A
5:00 PM77 °FLight rain. Broken clouds.No wind94%29.71 "HgN/A
4:00 PM75 °FThunderstorms. Broken clouds.12 mph100%29.74 "Hg1 mi
3:00 PM88 °FScattered showers. Broken clouds.3 mph79%29.71 "Hg5 mi
1:00 PM88 °FPartly sunny.5 mph70%29.77 "HgN/A
12:00 PM88 °FPartly sunny.3 mph75%29.80 "HgN/A
11:00 AM86 °FBroken clouds.3 mph75%29.83 "HgN/A
10:00 AM82 °FPartly sunny.3 mph84%29.83 "HgN/A
9:00 AM81 °FPartly sunny.2 mph89%29.83 "HgN/A
8:00 AM79 °FBroken clouds.5 mph94%29.83 "HgN/A
7:00 AM77 °FMostly cloudy.6 mph100%29.83 "HgN/A
6:00 AM77 °FMostly cloudy.5 mph100%29.80 "HgN/A
5:00 AM75 °FPassing clouds.2 mph100%29.80 "HgN/A
4:00 AM77 °FPassing clouds.2 mph100%29.80 "HgN/A
3:00 AM75 °FPassing clouds.3 mph100%29.77 "HgN/A
2:00 AM77 °FPassing clouds.5 mph100%29.80 "HgN/A
1:00 AM75 °FLight rain. Passing clouds.No wind100%29.80 "HgN/A
12:00 AM75 °FRain. Overcast.1 mph100%29.83 "HgN/A
11:00 PM
Sat, Aug 27
75 °FRain. Passing clouds.5 mph100%29.83 "HgN/A
10:00 PM75 °FStrong thunderstorms. Mostly cloudy.6 mph100%29.83 "Hg2 mi
9:00 PM75 °FStrong thunderstorms. Mostly cloudy.7 mph100%29.83 "Hg3 mi
Weather by CustomWeather, © 2016

See weather overviewHow to use our weather pages